Weather History for Blytheville Muni Airport, AR

Change the Weather History Date:

Tuesday, March 4, 2014

  Actual Average Record
Temperature  
Mean Temperature 22 °F -  
Max Temperature 28 °F 57 °F 79 °F (1963)
Min Temperature 15 °F 38 °F 14 °F (1960)
Degree Days  
Heating Degree Days 44    
Moisture  
Dew Point 20 °F    
Average Humidity 86    
Maximum Humidity 100    
Minimum Humidity 71    
Precipitation  
Precipitation 0.00 in - - ()
Sea Level Pressure  
Sea Level Pressure 30.25 in    
Wind  
Wind Speed 6 mph (ENE)    
Max Wind Speed 10 mph    
Max Gust Speed -    
Visibility 8 miles    
Events Snow    
Averages and records for this station are not official NWS values.
T = Trace of Precipitation, MM = Missing Value Source: NWS Daily Summary

Daily Weather History Graph

Daily Weather History Graph

Search for Another Location

Airport:

Trip Planner

Search our weather history database for the weather conditions in past years. The results will help you decide how hot, cold, wet, or windy it might be!

Date:

Astronomy

Mar. 04, 2014 Rise Set
Actual Time 6:25 AM CST 5:57 PM CST
Civil Twilight 5:59 AM CST 6:22 PM CST
Nautical Twilight 5:30 AM CST 6:52 PM CST
Astronomical Twilight 5:00 AM CST 7:22 PM CST
Moon 8:19 AM CST (3/4) 9:55 PM CST (3/4)
Length of Visible Light 12h 22m
Length of Day
11h 31m
Waxing Crescent, 15% of the Moon is Illuminated
Mar 4
Waxing Crescent
Mar 8
First Quarter
Mar 16
Full
Mar 23
Last Quarter
Mar 30
New

Hourly Weather History & Observations

Time (CST) Temp. Windchill Dew Point Humidity Pressure Visibility Wind Dir Wind Speed Gust Speed Precip Events Conditions
12:53 AM 19.0 °F 7.5 °F 12.9 °F 77% 30.35 in 10.0 mi NE 10.4 mph - N/A   Clear
1:53 AM 19.0 °F 11.1 °F 12.9 °F 77% 30.34 in 10.0 mi NE 5.8 mph - N/A   Clear
2:53 AM 18.0 °F 9.8 °F 12.9 °F 81% 30.30 in 10.0 mi NE 5.8 mph - N/A   Clear
3:53 AM 15.1 °F - 10.9 °F 84% 30.29 in 10.0 mi Calm Calm - N/A   Clear
4:53 AM 15.1 °F - 10.9 °F 84% 30.30 in 10.0 mi Calm Calm - N/A   Clear
5:53 AM 15.1 °F 4.2 °F 10.9 °F 84% 30.30 in 10.0 mi North 8.1 mph - N/A   Clear
6:53 AM 15.1 °F 7.7 °F 12.0 °F 88% 30.32 in 10.0 mi NNE 4.6 mph - N/A   Clear
7:53 AM 18.0 °F 12.7 °F 14.0 °F 84% 30.32 in 10.0 mi NNE 3.5 mph - N/A   Clear
8:53 AM 21.0 °F 11.4 °F 17.1 °F 85% 30.33 in 10.0 mi North 8.1 mph - N/A   Clear
9:53 AM 24.1 °F 19.7 °F 19.0 °F 81% 30.35 in 10.0 mi North 3.5 mph - N/A   Clear
10:53 AM 26.1 °F 20.5 °F 18.0 °F 71% 30.32 in 10.0 mi NNE 4.6 mph - N/A   Clear
11:53 AM 26.1 °F 16.8 °F 19.0 °F 75% 30.28 in 10.0 mi North 9.2 mph - N/A   Clear
12:53 PM 27.0 °F 19.5 °F 19.9 °F 75% 30.25 in 10.0 mi NNE 6.9 mph - N/A   Clear
1:53 PM 28.0 °F 20.8 °F 21.0 °F 75% 30.22 in 10.0 mi NNE 6.9 mph - N/A   Clear
2:53 PM 28.9 °F 25.2 °F 23.0 °F 78% 30.21 in 10.0 mi NNE 3.5 mph - N/A   Clear
3:53 PM 28.9 °F 23.9 °F 23.0 °F 78% 30.22 in 10.0 mi North 4.6 mph - N/A   Clear
4:53 PM 28.0 °F 21.7 °F 23.0 °F 81% 30.21 in 10.0 mi North 5.8 mph - N/A   Clear
5:53 PM 25.0 °F 17.1 °F 21.0 °F 85% 30.21 in 10.0 mi North 6.9 mph - N/A   Mostly Cloudy
6:53 PM 24.1 °F 19.7 °F 21.0 °F 88% 30.22 in 10.0 mi North 3.5 mph - N/A   Mostly Cloudy
7:53 PM 24.1 °F - 19.9 °F 84% 30.22 in 10.0 mi Calm Calm - N/A   Mostly Cloudy
8:23 PM 26.6 °F 19.1 °F 23.0 °F 86% 30.20 in 9.0 mi ESE 6.9 mph - N/A   Overcast
8:53 PM 26.1 °F 18.4 °F 24.1 °F 92% 30.21 in 9.0 mi ESE 6.9 mph - N/A   Overcast
9:03 PM 26.6 °F 20.0 °F 24.8 °F 93% 30.20 in 4.0 mi ESE 5.8 mph - 0.00 in Snow Light Snow
9:07 PM 26.6 °F 21.2 °F 24.8 °F 93% 30.21 in 1.8 mi ESE 4.6 mph - 0.00 in Snow Light Snow
9:23 PM 26.6 °F 21.2 °F 24.8 °F 93% 30.21 in 1.2 mi ESE 4.6 mph - 0.00 in Snow Light Snow
9:40 PM 26.6 °F 20.0 °F 24.8 °F 93% 30.20 in 3.0 mi East 5.8 mph - 0.00 in Snow Light Snow
9:53 PM 27.0 °F 19.5 °F 25.0 °F 92% 30.21 in 4.0 mi ESE 6.9 mph - 0.00 in   Overcast
10:18 PM 28.4 °F 20.4 °F 26.6 °F 93% 30.20 in 2.5 mi SE 8.1 mph - N/A   Overcast
10:33 PM 28.4 °F 20.4 °F 26.6 °F 93% 30.19 in 1.2 mi SE 8.1 mph - 0.00 in Snow Light Snow
10:53 PM 28.0 °F 20.8 °F 26.1 °F 92% 30.19 in 1.0 mi SE 6.9 mph - 0.00 in   Overcast
11:16 PM 28.4 °F 19.7 °F 26.6 °F 93% 30.17 in 2.0 mi SE 9.2 mph - 0.00 in   Overcast
11:36 PM 28.4 °F 22.2 °F 28.4 °F 100% 30.17 in 4.0 mi SE 5.8 mph - 0.00 in   Overcast
11:53 PM 28.9 °F 22.8 °F 28.0 °F 96% 30.18 in 6.0 mi South 5.8 mph - 0.00 in   Overcast